Weather History for Benson, MN

Change the Weather History Date:

Wednesday, February 13, 2013

  Actual Average Record
Temperature  
Mean Temperature 22 °F -  
Max Temperature 33 °F 26 °F 66 °F (1997)
Min Temperature 12 °F 7 °F -20 °F (1970)
Degree Days  
Heating Degree Days 42    
Moisture  
Dew Point 23 °F    
Average Humidity 91    
Maximum Humidity 100    
Minimum Humidity 75    
Precipitation  
Precipitation 0.04 in - - ()
Sea Level Pressure  
Sea Level Pressure 29.66 in    
Wind  
Wind Speed 4 mph (WSW)    
Max Wind Speed 15 mph    
Max Gust Speed -    
Visibility 8 miles    
Events Snow    
Averages and records for this station are not official NWS values.
T = Trace of Precipitation, MM = Missing Value Source: NWS Daily Summary

Daily Weather History Graph

Daily Weather History Graph

Search for Another Location

Airport:

Trip Planner

Search our weather history database for the weather conditions in past years. The results will help you decide how hot, cold, wet, or windy it might be!

Date:

Astronomy

Feb. 13, 2013 Rise Set
Actual Time 7:26 AM CST 5:47 PM CST
Civil Twilight 6:56 AM CST 6:18 PM CST
Nautical Twilight 6:21 AM CST 6:52 PM CST
Astronomical Twilight 5:47 AM CST 7:27 PM CST
Moon 8:43 AM CST (2/13) 10:06 PM CST (2/13)
Length of Visible Light 11h 21m
Length of Day
10h 20m
Waxing Crescent, 14% of the Moon is Illuminated
Feb 13
Waxing Crescent
Feb 17
First Quarter
Feb 25
Full
Mar 4
Last Quarter
Mar 11
New

Hourly Weather History & Observations

Time (CST) Temp. Windchill Dew Point Humidity Pressure Visibility Wind Dir Wind Speed Gust Speed Precip Events Conditions
12:12 AM 12.2 °F 0.7 °F 10.4 °F 92% 29.80 in 10.0 mi WNW 8.1 mph - N/A   Clear
12:33 AM 12.2 °F 0.7 °F 12.2 °F 100% 29.79 in 10.0 mi West 8.1 mph - N/A   Clear
12:53 AM 12.2 °F 4.3 °F 10.4 °F 92% 29.78 in 10.0 mi WNW 4.6 mph - N/A   Clear
1:12 AM 12.2 °F 1.7 °F 12.2 °F 100% 29.78 in 10.0 mi West 6.9 mph - N/A   Scattered Clouds
1:33 AM 12.2 °F 6.1 °F 10.4 °F 92% 29.78 in 10.0 mi West 3.5 mph - N/A   Scattered Clouds
1:53 AM 12.2 °F 6.1 °F 12.2 °F 100% 29.77 in 10.0 mi WNW 3.5 mph - N/A   Clear
2:12 AM 15.8 °F - 12.2 °F 86% 29.78 in 10.0 mi Calm Calm - N/A   Scattered Clouds
2:33 AM 15.8 °F - 14.0 °F 93% 29.77 in 10.0 mi Calm Calm - N/A   Overcast
2:53 AM 15.8 °F - 14.0 °F 93% 29.77 in 10.0 mi Calm Calm - N/A   Mostly Cloudy
3:12 AM 15.8 °F - 15.8 °F 100% 29.77 in 10.0 mi Calm Calm - N/A   Mostly Cloudy
3:33 AM 15.8 °F - 14.0 °F 93% 29.77 in 10.0 mi Calm Calm - N/A   Overcast
3:53 AM 17.6 °F - 15.8 °F 93% 29.76 in 10.0 mi Calm Calm - N/A   Overcast
4:12 AM 15.8 °F - 15.8 °F 100% 29.75 in 10.0 mi Calm Calm - N/A   Overcast
4:33 AM 17.6 °F - 15.8 °F 93% 29.75 in 10.0 mi Calm Calm - N/A   Overcast
4:53 AM 19.4 °F - 17.6 °F 93% 29.74 in 10.0 mi Calm Calm - N/A   Overcast
5:12 AM 19.4 °F 14.3 °F 17.6 °F 93% 29.73 in 10.0 mi SSW 3.5 mph - N/A   Overcast
5:33 AM 21.2 °F 16.4 °F 19.4 °F 93% 29.72 in 10.0 mi South 3.5 mph - N/A   Overcast
5:52 AM 21.2 °F 16.4 °F 19.4 °F 93% 29.72 in 10.0 mi SSW 3.5 mph - N/A   Overcast
6:12 AM 21.2 °F 16.4 °F 19.4 °F 93% 29.71 in 10.0 mi SSW 3.5 mph - N/A   Overcast
6:33 AM 23.0 °F 15.8 °F 21.2 °F 93% 29.69 in 10.0 mi SSW 5.8 mph - N/A   Overcast
6:52 AM 21.2 °F - 19.4 °F 93% 29.70 in 10.0 mi Calm Calm - N/A   Mostly Cloudy
7:12 AM 21.2 °F - 19.4 °F 93% 29.70 in 10.0 mi Calm Calm - N/A   Mostly Cloudy
7:33 AM 17.6 °F - 15.8 °F 93% 29.69 in 10.0 mi Calm Calm - N/A   Scattered Clouds
7:52 AM 17.6 °F - 15.8 °F 93% 29.70 in 10.0 mi Calm Calm - N/A   Mostly Cloudy
8:12 AM 17.6 °F - 15.8 °F 93% 29.69 in 10.0 mi Calm Calm - N/A   Scattered Clouds
8:33 AM 17.6 °F - 15.8 °F 93% 29.69 in 10.0 mi Calm Calm - N/A   Clear
8:52 AM 19.4 °F - 15.8 °F 86% 29.69 in 10.0 mi Calm Calm - N/A   Clear
9:11 AM 21.2 °F 16.4 °F 17.6 °F 86% 29.69 in 10.0 mi SSW 3.5 mph - N/A   Clear
9:32 AM 23.0 °F 18.4 °F 19.4 °F 86% 29.68 in 10.0 mi SW 3.5 mph - N/A   Clear
9:53 AM 26.6 °F - 21.2 °F 80% 29.68 in 10.0 mi Calm Calm - N/A   Clear
10:12 AM 26.6 °F 21.2 °F 21.2 °F 80% 29.67 in 10.0 mi SW 4.6 mph - N/A   Clear
10:32 AM 26.6 °F 21.2 °F 21.2 °F 80% 29.67 in 10.0 mi SSW 4.6 mph - N/A   Clear
11:12 AM 30.2 °F - 24.8 °F 80% 29.67 in 10.0 mi Calm Calm - N/A   Scattered Clouds
11:32 AM 32.0 °F 28.7 °F 24.8 °F 75% 29.67 in 10.0 mi West 3.5 mph - N/A   Scattered Clouds
11:53 AM 32.0 °F 28.7 °F 24.8 °F 75% 29.66 in 10.0 mi WSW 3.5 mph - N/A   Scattered Clouds
12:12 PM 32.0 °F 28.7 °F 24.8 °F 75% 29.65 in 10.0 mi SW 3.5 mph - N/A   Unknown
12:53 PM 33.8 °F 29.6 °F 26.6 °F 75% 29.64 in 10.0 mi West 4.6 mph - N/A   Scattered Clouds
1:12 PM 33.8 °F 30.8 °F 26.6 °F 75% 29.63 in 10.0 mi West 3.5 mph - N/A   Mostly Cloudy
1:33 PM 33.8 °F - 26.6 °F 75% 29.62 in 10.0 mi Calm Calm - N/A   Scattered Clouds
1:52 PM 33.8 °F - 26.6 °F 75% 29.61 in 10.0 mi Calm Calm - N/A   Mostly Cloudy
2:12 PM 33.8 °F - 26.6 °F 75% 29.59 in 10.0 mi Calm Calm - N/A   Mostly Cloudy
2:33 PM 33.8 °F 30.8 °F 26.6 °F 75% 29.59 in 10.0 mi WSW 3.5 mph - N/A   Mostly Cloudy
2:52 PM 33.8 °F 29.6 °F 26.6 °F 75% 29.58 in 2.5 mi SSW 4.6 mph - N/A Snow Light Snow
3:12 PM 32.0 °F 27.5 °F 28.4 °F 87% 29.57 in 1.2 mi South 4.6 mph - N/A Snow Light Snow
3:33 PM 32.0 °F 28.7 °F 28.4 °F 87% 29.57 in 0.8 mi South 3.5 mph - N/A Snow Light Snow
3:52 PM 30.2 °F 24.3 °F 30.2 °F 100% 29.57 in 1.5 mi South 5.8 mph - 0.01 in Snow Light Snow
4:12 PM 30.2 °F 24.3 °F 30.2 °F 100% 29.58 in 1.0 mi SSW 5.8 mph - 0.01 in Snow Light Snow
4:33 PM 30.2 °F 24.3 °F 30.2 °F 100% 29.58 in 1.2 mi SSW 5.8 mph - 0.02 in Snow Light Snow
4:52 PM 30.2 °F 24.3 °F 30.2 °F 100% 29.57 in 1.8 mi South 5.8 mph - 0.02 in Snow Light Snow
5:13 PM 32.0 °F 27.5 °F 30.2 °F 93% 29.57 in 2.0 mi SSW 4.6 mph - N/A Snow Light Snow
5:33 PM 32.0 °F 28.7 °F 30.2 °F 93% 29.56 in 1.2 mi SSW 3.5 mph - 0.01 in Snow Light Snow
5:52 PM 32.0 °F 28.7 °F 30.2 °F 93% 29.56 in 4.0 mi SW 3.5 mph - 0.01 in Snow Light Snow
6:13 PM 32.0 °F 27.5 °F 30.2 °F 93% 29.56 in 7.0 mi SW 4.6 mph - N/A Snow Light Snow
6:33 PM 32.0 °F 28.7 °F 30.2 °F 93% 29.55 in 7.0 mi WSW 3.5 mph - N/A   Overcast
6:52 PM 32.0 °F 28.7 °F 30.2 °F 93% 29.55 in 10.0 mi West 3.5 mph - N/A Snow Light Snow
7:13 PM 32.0 °F 28.7 °F 30.2 °F 93% 29.56 in 7.0 mi WNW 3.5 mph - N/A Snow Light Snow
7:33 PM 32.0 °F 27.5 °F 30.2 °F 93% 29.56 in 10.0 mi NW 4.6 mph - N/A Snow Light Snow
7:52 PM 32.0 °F 24.8 °F 30.2 °F 93% 29.57 in 10.0 mi NNW 8.1 mph - N/A   Overcast
8:13 PM 32.0 °F 24.8 °F 30.2 °F 93% 29.57 in 4.0 mi North 8.1 mph - N/A Snow Light Snow
8:33 PM 32.0 °F 24.2 °F 30.2 °F 93% 29.58 in 2.5 mi North 9.2 mph - N/A Snow Light Snow
8:52 PM 30.2 °F 21.3 °F 30.2 °F 100% 29.59 in 3.0 mi NNE 10.4 mph - N/A Snow Light Snow
9:13 PM 30.2 °F 21.3 °F 28.4 °F 93% 29.60 in 2.0 mi North 10.4 mph - N/A Snow Light Snow
9:32 PM 30.2 °F 20.8 °F 28.4 °F 93% 29.61 in 2.5 mi North 11.5 mph - N/A Snow Light Snow
9:52 PM 30.2 °F 20.2 °F 28.4 °F 93% 29.61 in 3.0 mi North 12.7 mph - N/A Snow Light Snow
10:13 PM 30.2 °F 19.3 °F 30.2 °F 100% 29.63 in 5.0 mi North 15.0 mph - N/A Snow Light Snow
10:32 PM 30.2 °F 19.8 °F 30.2 °F 100% 29.64 in 5.0 mi North 13.8 mph - N/A Snow Light Snow
10:53 PM 30.2 °F 20.2 °F 28.4 °F 93% 29.65 in 4.0 mi North 12.7 mph - N/A Snow Light Snow
11:13 PM 28.4 °F 17.5 °F 28.4 °F 100% 29.66 in 5.0 mi North 13.8 mph - N/A Snow Light Snow
11:32 PM 26.6 °F 15.7 °F 26.6 °F 100% 29.67 in 4.0 mi North 12.7 mph - N/A Snow Light Snow
11:53 PM 26.6 °F 14.7 °F 26.6 °F 100% 29.68 in 5.0 mi North 15.0 mph - N/A Snow Light Snow